Weather in Oreanda

Russia / Republic of Crimea     44°27′26″N   34°08′24″E
temp.,
°C
wind,
m/s
gust,
m/s
humid.,
%
clouds,
%
prec.,
mm/h
press.,
hPa
HPBL,
m
16 may, sun
sun1600:00+16n5569100 0.0 101125
03:00+16n5564100 0.0 101034
06:00+17n665513 0.0 100952
09:00+18ne45615 0.0 1009230
12:00+19ene4565100 0.1 1007324
15:00+18ene1273100 0.2 1006361
18:00+18n2375100 0.1 1004217
21:00+16ne458695 1.6 100443
17 may, mon
mon1700:00+16wsw338652 1.1 100226
03:00+15nw228573 1.3 100219
06:00+15wsw469165 0.0 100294
09:00+16nw348757 0.0 1005133
12:00+18w6771100 0.0 1006408
15:00+18w6769100 0.1 1007468
18:00+17w457339 0.1 1007327
21:00+15nw12866 0.7 100942
18 may, tue
tue1800:00+15w238533 0.0 101080
03:00+14wsw45804 0.0 100985
06:00+13wsw348697 0.0 100973
09:00+15sw238669 0.0 1010180
12:00+14s2290100 0.2 1011180
15:00+15sw368847 0.6 1010349
18:00+16wsw467597 0.1 1009359
21:00+13w468415 0.1 1010121
19 may, wed
wed1900:00+13w687729 0.0 1011234
03:00+13wnw447914 0.1 101171
06:00+12wnw45784 0.0 1013160
09:00+15wsw56640 0.0 1013475
12:00+16wsw79622 0.0 1014744
15:00+17sw79580 0.0 1014714
18:00+16sw67649 0.0 1014279
21:00+13wsw3478100 0.0 101583
20 may, thu
thu2000:00+13wsw1180100 0.0 101517
03:00+13nne33760 0.0 101459
06:00+13ne4474100 0.0 1013170
09:00+15ne677095 0.0 1011285
12:00+16ne796685 0.0 1010365
15:00+17ne57564 0.0 1009196
18:00+17ne34530 0.0 100795
21:00+16w115641 0.0 100713